• In Uzbekistan
  • List of Countries
  • For 7 days
  • Water Temperature
  • Satellite Maps
  • Weather Map
  • Weather Widgets
  • user-avatar
    Login

    Hourly Weather Tibissa

    Today, 25 February, Saturday

    Time Temperature Precipitation Wind Pressure Humidity
    00:00 +10°C° 0 mm 3 mps 681 mmHg 72%
    01:00 +9°C° 0 mm 3 mps 681 mmHg 82%
    02:00 +9°C° 0 mm 3 mps 681 mmHg 83%
    03:00 +9°C° 0 mm 3 mps 681 mmHg 85%
    04:00 +9°C° 0 mm 3 mps 681 mmHg 86%
    05:00 +8°C° 0 mm 3 mps 681 mmHg 88%
    06:00 +8°C° 0 mm 2 mps 681 mmHg 90%
    07:00 +7°C° 0 mm 2 mps 681 mmHg 92%
    08:00 +9°C° 0 mm 2 mps 682 mmHg 82%
    09:00 +10°C° 0 mm 2 mps 683 mmHg 72%
    10:00 +12°C° 0 mm 3 mps 683 mmHg 62%
    11:00 +13°C° 0.1 mm 3 mps 683 mmHg 58%
    12:00 +14°C° 0.1 mm 3 mps 684 mmHg 53%
    13:00 +16°C° 0.1 mm 3 mps 684 mmHg 48%
    14:00 +13°C° 0.8 mm 4 mps 683 mmHg 56%
    15:00 +10°C° 0.8 mm 5 mps 683 mmHg 64%
    16:00 +8°C° 0.8 mm 5 mps 683 mmHg 71%
    17:00 +7°C° 0.6 mm 5 mps 683 mmHg 73%
    18:00 +7°C° 0.6 mm 5 mps 683 mmHg 75%
    19:00 +6°C° 0.6 mm 5 mps 683 mmHg 76%
    20:00 +6°C° 0.5 mm 5 mps 684 mmHg 77%
    21:00 +6°C° 0.5 mm 5 mps 684 mmHg 77%
    22:00 +5°C° 0.5 mm 5 mps 684 mmHg 78%
    23:00 +5°C° 0.1 mm 5 mps 684 mmHg 79%

    Tomorrow, 26 February, Sunday

    Time Temperature Precipitation Wind Pressure Humidity
    00:00 +5°C° 0.1 mm 5 mps 684 mmHg 80%
    01:00 +3°C° 0.1 mm 5 mps 684 mmHg 82%
    02:00 +3°C° 0 mm 5 mps 684 mmHg 83%
    03:00 +4°C° 0 mm 4 mps 684 mmHg 84%
    04:00 +4°C° 0 mm 4 mps 684 mmHg 85%
    05:00 +4°C° 0.1 mm 4 mps 684 mmHg 86%
    06:00 +4°C° 0.1 mm 4 mps 684 mmHg 87%
    07:00 +4°C° 0.1 mm 4 mps 684 mmHg 88%
    08:00 +5°C° 0.1 mm 5 mps 685 mmHg 83%
    09:00 +6°C° 0.1 mm 5 mps 685 mmHg 78%
    10:00 +7°C° 0.1 mm 6 mps 686 mmHg 73%
    11:00 +8°C° 0.1 mm 6 mps 686 mmHg 71%
    12:00 +8°C° 0.1 mm 6 mps 686 mmHg 69%
    13:00 +9°C° 0.1 mm 7 mps 686 mmHg 67%
    14:00 +9°C° 0.1 mm 7 mps 686 mmHg 67%
    15:00 +9°C° 0.1 mm 7 mps 685 mmHg 67%
    16:00 +9°C° 0.1 mm 7 mps 685 mmHg 67%
    17:00 +8°C° 0 mm 6 mps 685 mmHg 73%
    18:00 +7°C° 0 mm 5 mps 685 mmHg 78%
    19:00 +6°C° 0 mm 4 mps 685 mmHg 84%
    20:00 +5°C° 0 mm 4 mps 686 mmHg 86%
    21:00 +5°C° 0 mm 4 mps 686 mmHg 89%
    22:00 +4°C° 0 mm 3 mps 686 mmHg 92%
    23:00 +4°C° 0 mm 3 mps 686 mmHg 92%

    Day after tomorrow, 27 February, Monday

    Time Temperature Precipitation Wind Pressure Humidity
    00:00 +5°C° 0 mm 2 mps 686 mmHg 93%
    01:00 +4°C° 0 mm 2 mps 686 mmHg 93%
    02:00 +4°C° 0 mm 2 mps 685 mmHg 93%
    03:00 +3°C° 0 mm 2 mps 685 mmHg 93%
    04:00 +4°C° 0 mm 1 mps 685 mmHg 93%
    05:00 +4°C° 0 mm 1 mps 685 mmHg 92%
    06:00 +4°C° 0 mm 1 mps 685 mmHg 91%
    07:00 +3°C° 0 mm 1 mps 685 mmHg 90%
    08:00 +6°C° 0 mm 1 mps 686 mmHg 78%
    09:00 +8°C° 0 mm 1 mps 686 mmHg 66%
    10:00 +11°C° 0 mm 1 mps 687 mmHg 54%
    11:00 +12°C° 0 mm 2 mps 687 mmHg 48%
    12:00 +14°C° 0 mm 2 mps 687 mmHg 42%
    13:00 +14°C° 0 mm 3 mps 687 mmHg 36%
    14:00 +16°C° 0 mm 3 mps 686 mmHg 35%
    15:00 +16°C° 0 mm 3 mps 686 mmHg 35%
    16:00 +17°C° 0 mm 3 mps 686 mmHg 34%
    17:00 +15°C° 0 mm 2 mps 685 mmHg 41%
    18:00 +12°C° 0 mm 2 mps 685 mmHg 49%
    19:00 +9°C° 0 mm 2 mps 684 mmHg 57%
    20:00 +9°C° 0 mm 2 mps 685 mmHg 62%
    21:00 +9°C° 0 mm 1 mps 685 mmHg 66%
    22:00 +8°C° 0 mm 1 mps 685 mmHg 70%
    23:00 +8°C° 0 mm 1 mps 685 mmHg 71%

    28 February, Tuesday

    Time Temperature Precipitation Wind Pressure Humidity
    00:00 +7°C° 0 mm 1 mps 684 mmHg 73%
    01:00 +7°C° 0 mm 1 mps 684 mmHg 74%
    02:00 +7°C° 0 mm 1 mps 684 mmHg 75%
    03:00 +7°C° 0 mm 1 mps 684 mmHg 75%
    04:00 +6°C° 0 mm 1 mps 684 mmHg 76%
    05:00 +6°C° 0 mm 1 mps 684 mmHg 75%
    06:00 +6°C° 0 mm 1 mps 684 mmHg 75%
    07:00 +6°C° 0 mm 1 mps 684 mmHg 74%
    08:00 +9°C° 0 mm 1 mps 685 mmHg 64%
    09:00 +10°C° 0 mm 2 mps 686 mmHg 53%
    10:00 +14°C° 0 mm 2 mps 686 mmHg 42%
    11:00 +15°C° 0 mm 2 mps 686 mmHg 38%
    12:00 +17°C° 0 mm 2 mps 687 mmHg 34%
    13:00 +18°C° 0 mm 3 mps 687 mmHg 30%
    14:00 +18°C° 0 mm 3 mps 686 mmHg 29%
    15:00 +19°C° 0 mm 3 mps 686 mmHg 29%
    16:00 +19°C° 0 mm 3 mps 686 mmHg 29%
    17:00 +16°C° 0 mm 3 mps 685 mmHg 37%
    18:00 +14°C° 0 mm 2 mps 685 mmHg 45%
    19:00 +12°C° 0 mm 2 mps 685 mmHg 54%
    20:00 +10°C° 0 mm 2 mps 685 mmHg 58%
    21:00 +10°C° 0 mm 1 mps 685 mmHg 63%
    22:00 +10°C° 0 mm 1 mps 686 mmHg 67%
    23:00 +9°C° 0 mm 1 mps 686 mmHg 70%

    1 March, Wednesday

    Time Temperature Precipitation Wind Pressure Humidity
    00:00 +9°C° 0 mm 1 mps 686 mmHg 73%
    01:00 +8°C° 0 mm 1 mps 686 mmHg 77%
    02:00 +8°C° 0 mm 1 mps 685 mmHg 79%
    03:00 +8°C° 0 mm 1 mps 685 mmHg 82%
    04:00 +7°C° 0 mm 1 mps 685 mmHg 84%
    05:00 +7°C° 0 mm 1 mps 686 mmHg 86%
    06:00 +7°C° 0 mm 1 mps 686 mmHg 87%
    07:00 +6°C° 0 mm 1 mps 686 mmHg 89%
    08:00 +9°C° 0 mm 1 mps 687 mmHg 78%
    09:00 +12°C° 0 mm 1 mps 688 mmHg 66%
    10:00 +14°C° 0 mm 1 mps 689 mmHg 55%
    11:00 +15°C° 0 mm 1 mps 690 mmHg 48%
    12:00 +18°C° 0 mm 1 mps 690 mmHg 41%
    13:00 +19°C° 0 mm 1 mps 690 mmHg 34%
    14:00 +19°C° 0 mm 1 mps 690 mmHg 32%
    15:00 +19°C° 0 mm 2 mps 689 mmHg 31%
    16:00 +19°C° 0 mm 2 mps 689 mmHg 29%
    17:00 +17°C° 0 mm 2 mps 689 mmHg 37%
    18:00 +15°C° 0 mm 2 mps 689 mmHg 45%
    19:00 +13°C° 0 mm 2 mps 688 mmHg 52%
    20:00 +12°C° 0 mm 2 mps 688 mmHg 55%
    21:00 +10°C° 0 mm 2 mps 689 mmHg 58%
    22:00 +10°C° 0 mm 1 mps 689 mmHg 62%
    23:00 +10°C° 0 mm 1 mps 689 mmHg 62%

    2 March, Thursday

    Time Temperature Precipitation Wind Pressure Humidity
    00:00 +9°C° 0 mm 2 mps 688 mmHg 62%
    01:00 +9°C° 0 mm 2 mps 688 mmHg 62%
    02:00 +8°C° 0 mm 2 mps 688 mmHg 62%
    03:00 +8°C° 0 mm 2 mps 688 mmHg 62%
    04:00 +8°C° 0 mm 2 mps 687 mmHg 62%
    05:00 +7°C° 0 mm 2 mps 687 mmHg 61%
    06:00 +7°C° 0 mm 2 mps 687 mmHg 61%
    07:00 +7°C° 0 mm 2 mps 687 mmHg 60%
    08:00 +10°C° 0 mm 2 mps 688 mmHg 51%
    09:00 +13°C° 0 mm 2 mps 689 mmHg 42%
    10:00 +16°C° 0 mm 3 mps 690 mmHg 33%
    11:00 +17°C° 0 mm 3 mps 689 mmHg 29%
    12:00 +19°C° 0 mm 3 mps 689 mmHg 24%
    13:00 +20°C° 0 mm 3 mps 689 mmHg 20%
    14:00 +20°C° 0 mm 3 mps 689 mmHg 19%
    15:00 +20°C° 0 mm 2 mps 688 mmHg 19%
    16:00 +21°C° 0 mm 2 mps 688 mmHg 18%
    17:00 +18°C° 0 mm 2 mps 687 mmHg 26%
    18:00 +15°C° 0 mm 2 mps 687 mmHg 33%
    19:00 +13°C° 0 mm 2 mps 686 mmHg 40%
    20:00 +12°C° 0 mm 2 mps 686 mmHg 43%
    21:00 +12°C° 0 mm 2 mps 686 mmHg 47%
    22:00 +10°C° 0 mm 2 mps 686 mmHg 50%
    23:00 +10°C° 0 mm 2 mps 686 mmHg 51%
    Show more